TimeCET,TemperatureF,Dew PointF,Humidity,Sea Level PressureIn,VisibilityMPH,Wind Direction,Wind SpeedMPH,Gust SpeedMPH,PrecipitationIn,Events,Conditions,WindDirDegrees,DateUTC
12:00 AM,28.4,26.6,93,30.33,6.2,Calm,Calm,-,N/A,,Partly Cloudy,0,2012-02-04 23:00:00
12:30 AM,28.4,26.6,93,30.33,6.2,Calm,Calm,-,N/A,,Scattered Clouds,0,2012-02-04 23:30:00
1:00 AM,28,26,91,30.34,18,Calm,Calm,,,,Scattered Clouds,,2012-02-05 00:00:00
1:00 AM,28.4,26.6,93,30.33,6.2,Calm,Calm,-,N/A,,Scattered Clouds,0,2012-02-05 00:00:00
1:30 AM,28.4,26.6,93,30.33,6.2,Calm,Calm,-,N/A,,Mostly Cloudy,0,2012-02-05 00:30:00
2:00 AM,30.2,28.4,93,30.33,6.2,Calm,Calm,-,N/A,,Mostly Cloudy,0,2012-02-05 01:00:00
2:30 AM,28.4,26.6,93,30.33,6.2,Calm,Calm,-,N/A,,Partly Cloudy,0,2012-02-05 01:30:00
3:00 AM,32.0,30.2,93,30.33,6.2,Variable,2.3,-,N/A,,Scattered Clouds,0,2012-02-05 02:00:00
3:30 AM,32.0,30.2,93,30.33,6.2,NNE,3.5,-,N/A,,Partly Cloudy,30,2012-02-05 02:30:00
3:32 AM,32.0,30.2,93,30.33,6.2,Variable,2.3,-,N/A,Snow,Snow,0,2012-02-05 02:32:00
3:34 AM,32.0,30.2,93,30.33,6.2,Variable,2.3,-,N/A,Snow,Snow,0,2012-02-05 02:34:00
3:43 AM,33.8,32.0,93,30.33,2.5,WNW,4.6,-,N/A,Snow,Snow,300,2012-02-05 02:43:00
4:00 AM,33.8,32.0,93,30.33,2.5,Calm,Calm,-,N/A,Snow,Snow,0,2012-02-05 03:00:00
4:30 AM,32.0,32.0,100,30.33,2.5,Calm,Calm,-,N/A,Snow,Snow,0,2012-02-05 03:30:00
4:32 AM,33.8,32.0,93,30.33,0.9,Calm,Calm,-,N/A,Snow,Snow,0,2012-02-05 03:32:00
4:38 AM,32.0,32.0,100,30.33,0.6,Calm,Calm,-,N/A,Snow,Heavy Snow,0,2012-02-05 03:38:00
4:47 AM,33.8,32.0,93,30.33,0.5,West,1.2,-,N/A,Snow,Heavy Snow,260,2012-02-05 03:47:00
5:00 AM,33.8,32.0,93,30.33,0.5,Variable,2.3,13.8,N/A,Snow,Heavy Snow,0,2012-02-05 04:00:00
5:08 AM,33.8,32.0,93,30.33,0.9,Calm,Calm,-,N/A,Snow,Snow,0,2012-02-05 04:08:00
5:30 AM,32.0,32.0,100,30.33,1.9,Variable,1.2,-,N/A,Snow,Snow,0,2012-02-05 04:30:00
6:00 AM,32.0,32.0,100,30.33,3.7,Calm,Calm,-,N/A,Snow,Light Snow,0,2012-02-05 05:00:00
6:12 AM,32.0,32.0,100,30.33,3.7,Calm,Calm,-,N/A,,Mostly Cloudy,0,2012-02-05 05:12:00
6:30 AM,32.0,32.0,100,30.30,3.7,Calm,Calm,-,N/A,Snow,Light Snow,0,2012-02-05 05:30:00
6:45 AM,30.2,30.2,100,30.30,3.7,East,1.2,-,N/A,,Mostly Cloudy,100,2012-02-05 05:45:00
7:00 AM,30,30,98,30.32,12,East,1.2,,,,Partly Cloudy,90,2012-02-05 06:00:00
7:00 AM,30.2,30.2,100,30.30,3.7,ENE,1.2,-,N/A,,Mostly Cloudy,70,2012-02-05 06:00:00
7:20 AM,28.4,26.6,93,30.30,3.7,Calm,Calm,-,N/A,Fog,Shallow Fog,0,2012-02-05 06:20:00
7:30 AM,26.6,26.6,100,30.30,3.7,Calm,Calm,-,N/A,Fog,Shallow Fog,0,2012-02-05 06:30:00
7:54 AM,26.6,26.6,100,30.30,0.1,Calm,Calm,-,N/A,Fog,Light Freezing Fog,0,2012-02-05 06:54:00
8:00 AM,24.8,24.8,100,30.30,0.1,Calm,Calm,-,N/A,Fog,Light Freezing Fog,0,2012-02-05 07:00:00
8:30 AM,24.8,24.8,100,30.30,0.1,Calm,Calm,-,N/A,Fog,Light Freezing Fog,0,2012-02-05 07:30:00
9:00 AM,26.6,26.6,100,30.30,0.2,Variable,1.2,-,N/A,Fog,Light Freezing Fog,0,2012-02-05 08:00:00
9:10 AM,26.6,26.6,100,30.30,0.5,Calm,Calm,-,N/A,Fog,Light Freezing Fog,0,2012-02-05 08:10:00
9:30 AM,26.6,26.6,100,30.30,0.9,Calm,Calm,-,N/A,Fog,Patches of Fog,0,2012-02-05 08:30:00
9:39 AM,28.4,28.4,100,30.30,1.9,Calm,Calm,-,N/A,Fog,Patches of Fog,0,2012-02-05 08:39:00
9:51 AM,30.2,30.2,100,30.30,5.0,Calm,Calm,-,N/A,,Partly Cloudy,0,2012-02-05 08:51:00
10:00 AM,32.0,32.0,100,30.30,5.6,Calm,Calm,-,N/A,,Partly Cloudy,0,2012-02-05 09:00:00
10:30 AM,33.8,32.0,93,30.30,6.2,Calm,Calm,-,N/A,,Partly Cloudy,0,2012-02-05 09:30:00
11:00 AM,37.4,35.6,93,30.30,6.2,Calm,Calm,-,N/A,,Partly Cloudy,0,2012-02-05 10:00:00
11:30 AM,41.0,39.2,93,30.30,6.2,Calm,Calm,-,N/A,,Partly Cloudy,0,2012-02-05 10:30:00
12:00 PM,42.8,41.0,93,30.27,6.2,Calm,Calm,-,N/A,,Partly Cloudy,0,2012-02-05 11:00:00
12:30 PM,42.8,37.4,81,30.24,6.2,Variable,1.2,-,N/A,,Partly Cloudy,0,2012-02-05 11:30:00
1:00 PM,45,34,55,30.25,16,,2.3,,,,Scattered Clouds,,2012-02-05 12:00:00
1:00 PM,46.4,32.0,57,30.24,6.2,West,2.3,-,N/A,,Partly Cloudy,260,2012-02-05 12:00:00
1:30 PM,46.4,28.4,50,30.21,6.2,West,1.2,-,N/A,,Partly Cloudy,260,2012-02-05 12:30:00
2:00 PM,48.2,24.8,40,30.18,6.2,West,4.6,-,N/A,,Partly Cloudy,280,2012-02-05 13:00:00
2:30 PM,46.4,19.4,34,30.18,6.2,West,3.5,-,N/A,,Partly Cloudy,280,2012-02-05 13:30:00
3:00 PM,46.4,21.2,37,30.18,6.2,WNW,3.5,-,N/A,,Partly Cloudy,300,2012-02-05 14:00:00
3:30 PM,48.2,24.8,40,30.15,6.2,Variable,2.3,-,N/A,,Partly Cloudy,0,2012-02-05 14:30:00
4:00 PM,46.4,30.2,53,30.15,6.2,Calm,Calm,-,N/A,,Scattered Clouds,0,2012-02-05 15:00:00
4:30 PM,42.8,35.6,76,30.15,3.7,WNW,10.4,-,N/A,,Light Drizzle,300,2012-02-05 15:30:00
5:00 PM,41.0,37.4,87,30.15,5.6,North,3.5,-,N/A,,Mostly Cloudy,10,2012-02-05 16:00:00
5:30 PM,41.0,37.4,87,30.15,6.2,NE,3.5,-,N/A,,Mostly Cloudy,50,2012-02-05 16:30:00
6:00 PM,41.0,37.4,87,30.12,6.2,NE,3.5,-,N/A,,Mostly Cloudy,50,2012-02-05 17:00:00
6:30 PM,41.0,37.4,87,30.12,6.2,NE,4.6,-,N/A,,Mostly Cloudy,40,2012-02-05 17:30:00
7:00 PM,40,38,88,30.14,11,ENE,2.3,,,,Partly Cloudy,60,2012-02-05 18:00:00
7:00 PM,39.2,37.4,93,30.12,6.2,Variable,2.3,-,N/A,,Mostly Cloudy,0,2012-02-05 18:00:00
7:30 PM,39.2,37.4,93,30.12,6.2,NE,4.6,-,N/A,,Mostly Cloudy,40,2012-02-05 18:30:00
8:00 PM,39.2,37.4,93,30.12,6.2,NE,3.5,-,N/A,,Mostly Cloudy,40,2012-02-05 19:00:00
8:30 PM,39.2,37.4,93,30.12,6.2,NE,6.9,-,N/A,,Mostly Cloudy,50,2012-02-05 19:30:00
9:00 PM,39.2,37.4,93,30.12,6.2,NE,8.1,-,N/A,,Mostly Cloudy,40,2012-02-05 20:00:00
9:30 PM,39.2,37.4,93,30.12,6.2,NE,6.9,-,N/A,,Mostly Cloudy,40,2012-02-05 20:30:00
10:00 PM,37.4,35.6,93,30.15,6.2,NE,8.1,-,N/A,,Mostly Cloudy,50,2012-02-05 21:00:00
10:30 PM,39.2,37.4,93,30.15,6.2,NE,8.1,-,N/A,,Mostly Cloudy,50,2012-02-05 21:30:00
11:00 PM,39.2,37.4,93,30.15,6.2,ENE,5.8,-,N/A,,Mostly Cloudy,60,2012-02-05 22:00:00
11:30 PM,39.2,37.4,93,30.15,6.2,Variable,1.2,-,N/A,,Scattered Clouds,0,2012-02-05 22:30:00